Location: Unspecified
(17.6330°N, 0.0000°E)
Time: 09:06:08
(UTC+00:00)

A-11 Canister half - Pass Details

Date: 21 June 2019
Orbit: 1514 x 1685 km, 47.2° (Epoch: 16 July)

Event Time Altitude Azimuth Distance (km) Brightness Sun altitude
Rises 18:10:46 0° 319° (NW) 4,706 12.9 5.0°
Reaches altitude 10° 18:13:52 10° 320° (NW) 3,705 12.3 4.3°
Maximum altitude 18:23:11 77° 46° (NE) 1,550 9.1 2.2°
Drops below altitude 10° 18:32:24 10° 132° (SE) 3,670 10.4 0.2°
Sets 18:35:26 0° 134° (SE) 4,658 10.9 -0.4°
